Weather in Uspeno-Raevka

Russia / Kursk Oblast     51°49′44″N   37°55′04″E
temp.,
°C
wind,
m/s
gust,
m/s
humid.,
%
clouds,
%
prec.,
mm/h
press.,
hPa
HPBL,
m
7 march, sun
sun700:00−11w47910 0.0 1021131
03:00−12w48910 0.0 1020148
06:00−10wsw410969 0.0 1018208
09:00−7wsw7158748 0.0 1016591
12:00−4sw101675100 0.0 1013949
15:00−2sw111974100 0.0 10081264
18:00−2wsw101988100 0.0 10051167
21:00−2wsw111990100 0.1 10041076
8 march, mon
mon800:00−3wnw6128399 1.1 1005754
03:00−5wsw478297 1.1 1005126
06:00−5sw4894100 0.1 1004237
09:00−3w51092100 0.2 1004598
12:00−2w61085100 0.4 10051109
15:00−2wnw6108097 0.6 10061098
18:00−6w498793 0.1 1007259
21:00−7w489289 0.1 1009194
9 march, tue
tue900:00−7nw3596100 0.3 1011191
03:00−10nnw349499 0.3 101283
06:00−13nw349389 0.0 101383
09:00−12wnw359562 0.0 1015173
12:00−9wnw469384 0.0 1016371
15:00−7nw468792 0.1 1018772
18:00−10nw3793100 0.1 1018166
21:00−12nw489497 0.1 1021212
10 march, wed
wed1000:00−15nw34947 0.0 102276
03:00−17nw34944 0.0 102365
06:00−18nw34962 0.0 102472
09:00−16nnw24951 0.0 1026138
12:00−13n238530 0.0 1026307
15:00−12n228054 0.0 1027352
18:00−13nne1290100 0.0 102622
21:00−15ne2289100 0.0 102825
11 march, thu
thu1100:00−15e228884 0.0 102944
03:00−15ese228585 0.0 102920
06:00−15se238893 0.0 102928
09:00−12sse368885 0.0 1030215
12:00−9s468519 0.0 1030371
15:00−6s467716 0.0 1029673
18:00−8sse44790 0.0 102870
21:00−9sse510790 0.0 1027165